Location: Omaha
(41.2590°N, 95.9380°W)
Time: 20:25:23
(UTC-05:00)

Tiangong 1 - Pass Details

Date: 07 October 2017
Orbit: 293 x 320 km, 42.8° (Epoch: 20 October)

Event Time Altitude Azimuth Distance (km) Brightness Sun altitude
Rises 20:52:11 0° 270° (W) 2,030 6.1 -22.7°
Reaches altitude 10° 20:54:11 10° 274° (W) 1,195 4.6 -23.1°
Enters shadow 20:55:17 21° 281° (W) 754 3.3 -23.3°
